| time (UTC) | temp C | wind direction | speed KPH | gust KPH | rain 1hr cm | rain 24hr cm | rain mn cm | humidity % | barometer mb |
| 20260906000410 | 25 | 165 | 0.0 | 0.0 | 0.00 | 0.00 | 0.00 | 70 | 1011.1 |
| 20260905235348 | 25 | 165 | 0.0 | 0.0 | 0.00 | 0.00 | 0.00 | 70 | 1011.0 |
| 20260905234338 | 25 | 165 | 0.0 | 0.0 | 0.00 | 0.00 | 0.00 | 72 | 1011.0 |
| 20260905232248 | 26 | 165 | 0.0 | 0.0 | 0.00 | 0.00 | 0.00 | 73 | 1010.7 |
| 20260905231247 | 26 | 165 | 0.0 | 0.0 | 0.00 | 0.00 | 0.00 | 71 | 1010.6 |
| 20260905225110 | 26 | 165 | 0.0 | 0.0 | 0.00 | 0.00 | 0.00 | 67 | 1010.6 |
| 20260905224110 | 26 | 165 | 0.0 | 0.0 | 0.00 | 0.00 | 0.00 | 66 | 1010.5 |
| 20260905223046 | 27 | 165 | 0.0 | 0.0 | 0.00 | 0.00 | 0.00 | 66 | 1010.4 |
| 20260905222021 | 27 | 165 | 0.0 | 0.0 | 0.00 | 0.00 | 0.00 | 67 | 1010.5 |
| 20260905221010 | 27 | 165 | 0.0 | 0.0 | 0.00 | 0.00 | 0.00 | 66 | 1010.4 |
| 20260905214840 | 27 | 165 | 0.0 | 0.0 | 0.00 | 0.00 | 0.00 | 69 | 1010.3 |
| 20260905213807 | 26 | 165 | 0.0 | 1.6 | 0.00 | 0.00 | 0.00 | 66 | 1010.2 |
| 20260905212819 | 27 | 165 | 0.0 | 0.0 | 0.00 | 0.00 | 0.00 | 68 | 1010.0 |
| 20260905211814 | 27 | 165 | 0.0 | 0.0 | 0.00 | 0.00 | 0.00 | 67 | 1009.9 |
| 20260905210812 | 27 | 165 | 0.0 | 0.0 | 0.00 | 0.00 | 0.00 | 68 | 1009.8 |
| 20260905205811 | 27 | 165 | 0.0 | 1.6 | 0.00 | 0.00 | 0.00 | 67 | 1009.7 |
| 20260905204744 | 27 | 165 | 0.0 | 0.0 | 0.00 | 0.00 | 0.00 | 66 | 1009.8 |
| 20260905202600 | 28 | 0 | 0.0 | 1.6 | 0.00 | 0.00 | 0.00 | 65 | 1009.8 |
| 20260905201618 | 27 | 0 | 0.0 | 9.7 | 0.00 | 0.00 | 0.00 | 65 | 1009.9 |
| 20260905200641 | 28 | 9 | 0.0 | 6.4 | 0.00 | 0.00 | 0.00 | 65 | 1009.8 |
| 20260905195652 | 28 | 87 | 0.0 | 8.0 | 0.00 | 0.00 | 0.00 | 64 | 1010.0 |
| 20260905192430 | 28 | 104 | 0.0 | 8.0 | 0.00 | 0.00 | 0.00 | 63 | 1010.0 |
| 20260905191431 | 28 | 355 | 0.0 | 6.4 | 0.00 | 0.00 | 0.00 | 65 | 1010.1 |
| 20260905190408 | 28 | 91 | 1.6 | 8.0 | 0.00 | 0.00 | 0.00 | 67 | 1010.1 |
| 20260905185428 | 28 | 288 | 0.0 | 8.0 | 0.00 | 0.00 | 0.00 | 69 | 1010.3 |
| 20260905184359 | 27 | 315 | 0.0 | 1.6 | 0.00 | 0.00 | 0.00 | 70 | 1010.3 |
| 20260905183327 | 27 | 315 | 0.0 | 0.0 | 0.00 | 0.00 | 0.00 | 72 | 1010.5 |
| 20260905182334 | 27 | 316 | 0.0 | 4.8 | 0.00 | 0.00 | 0.00 | 72 | 1010.7 |
| 20260905181329 | 27 | 316 | 0.0 | 4.8 | 0.00 | 0.00 | 0.00 | 71 | 1010.7 |
| 20260905180323 | 27 | 288 | 0.0 | 1.6 | 0.00 | 0.00 | 0.00 | 72 | 1010.9 |
| 20260905175316 | 27 | 288 | 0.0 | 0.0 | 0.00 | 0.00 | 0.00 | 71 | 1011.1 |
| 20260905174253 | 28 | 288 | 0.0 | 1.6 | 0.00 | 0.00 | 0.00 | 68 | 1011.1 |
| 20260905173221 | 28 | 288 | 0.0 | 1.6 | 0.00 | 0.00 | 0.00 | 67 | 1011.2 |
| 20260905172245 | 29 | 288 | 0.0 | 6.4 | 0.00 | 0.00 | 0.00 | 65 | 1011.3 |
| 20260905171246 | 28 | 286 | 0.0 | 4.8 | 0.00 | 0.00 | 0.00 | 67 | 1011.4 |
| 20260905170250 | 27 | 282 | 0.0 | 4.8 | 0.00 | 0.00 | 0.00 | 69 | 1011.6 |
| 20260905165237 | 28 | 347 | 0.0 | 6.4 | 0.00 | 0.00 | 0.00 | 69 | 1011.8 |
| 20260905163029 | 27 | 248 | 0.0 | 4.8 | 0.00 | 0.00 | 0.00 | 71 | 1011.6 |
| 20260905160909 | 27 | 214 | 0.0 | 1.6 | 0.00 | 0.00 | 0.00 | 73 | 1012.0 |
| 20260905155932 | 27 | 65 | 0.0 | 1.6 | 0.00 | 0.00 | 0.00 | 72 | 1012.1 |
| 20260905153733 | 26 | 63 | 0.0 | 1.6 | 0.00 | 0.00 | 0.00 | 72 | 1012.0 |
| 20260905151630 | 26 | 64 | 0.0 | 0.0 | 0.00 | 0.00 | 0.00 | 72 | 1012.3 |
| 20260905150650 | 26 | 63 | 0.0 | 0.0 | 0.00 | 0.00 | 0.00 | 74 | 1012.4 |
| 20260905145709 | 26 | 63 | 0.0 | 0.0 | 0.00 | 0.00 | 0.00 | 72 | 1012.4 |
| 20260905144710 | 26 | 63 | 0.0 | 0.0 | 0.00 | 0.00 | 0.00 | 72 | 1012.2 |
| 20260905142528 | 26 | 63 | 0.0 | 4.8 | 0.00 | 0.00 | 0.00 | 71 | 1012.0 |
| 20260905141500 | 26 | 119 | 0.0 | 3.2 | 0.00 | 0.00 | 0.00 | 72 | 1011.9 |
| 20260905140457 | 26 | 98 | 0.0 | 8.0 | 0.00 | 0.00 | 0.00 | 73 | 1011.6 |
| 20260905134324 | 26 | 115 | 0.0 | 1.6 | 0.00 | 0.00 | 0.00 | 79 | 1011.4 |
| 20260905132143 | 25 | 333 | 0.0 | 1.6 | 0.00 | 0.00 | 0.00 | 82 | 1011.6 |
| 20260905131141 | 25 | 331 | 0.0 | 0.0 | 0.00 | 0.00 | 0.00 | 84 | 1011.6 |
| 20260905130126 | 25 | 331 | 0.0 | 0.0 | 0.00 | 0.00 | 0.00 | 84 | 1011.6 |
| 20260905125117 | 25 | 331 | 0.0 | 0.0 | 0.00 | 0.00 | 0.00 | 84 | 1011.6 |
| 20260905124100 | 25 | 331 | 0.0 | 0.0 | 0.00 | 0.00 | 0.00 | 84 | 1011.5 |
| 20260905123058 | 25 | 331 | 0.0 | 0.0 | 0.00 | 0.00 | 0.00 | 84 | 1011.2 |
| 20260905122047 | 25 | 199 | 0.0 | 0.0 | 0.00 | 0.00 | 0.00 | 85 | 1011.3 |
| 20260905121047 | 24 | 198 | 0.0 | 0.0 | 0.00 | 0.00 | 0.00 | 87 | 1011.3 |
| 20260905120107 | 23 | 198 | 0.0 | 0.0 | 0.00 | 0.00 | 0.00 | 89 | 1011.4 |
| 20260905115047 | 22 | 198 | 0.0 | 0.0 | 0.00 | 0.00 | 0.00 | 92 | 1011.1 |
| 20260905114049 | 22 | 198 | 0.0 | 0.0 | 0.00 | 0.00 | 0.00 | 94 | 1011.1 |
| 20260905111912 | 21 | 198 | 0.0 | 0.0 | 0.00 | 0.00 | 0.00 | 95 | 1011.1 |
| 20260905105752 | 21 | 269 | 0.0 | 0.0 | 0.00 | 0.00 | 0.00 | 94 | 1010.6 |
| 20260905104717 | 21 | 269 | 0.0 | 0.0 | 0.00 | 0.00 | 0.00 | 93 | 1010.5 |
| 20260905103708 | 21 | 269 | 0.0 | 0.0 | 0.00 | 0.00 | 0.00 | 93 | 1010.5 |
| 20260905102642 | 21 | 269 | 0.0 | 0.0 | 0.00 | 0.00 | 0.00 | 93 | 1010.2 |
| 20260905101613 | 21 | 269 | 0.0 | 0.0 | 0.00 | 0.00 | 0.00 | 93 | 1010.2 |
| 20260905100611 | 21 | 269 | 0.0 | 0.0 | 0.00 | 0.00 | 0.00 | 93 | 1010.3 |
| 20260905095555 | 21 | 269 | 0.0 | 0.0 | 0.00 | 0.00 | 0.00 | 93 | 1010.2 |
| 20260905093355 | 21 | 269 | 0.0 | 0.0 | 0.00 | 0.00 | 0.00 | 93 | 1010.1 |
| 20260905091306 | 21 | 269 | 0.0 | 0.0 | 0.00 | 0.00 | 0.00 | 92 | 1010.2 |
| 20260905090307 | 21 | 269 | 0.0 | 0.0 | 0.00 | 0.00 | 0.00 | 92 | 1010.2 |
| 20260905084228 | 21 | 269 | 0.0 | 0.0 | 0.00 | 0.00 | 0.00 | 92 | 1010.1 |
| 20260905083232 | 22 | 269 | 0.0 | 0.0 | 0.00 | 0.00 | 0.00 | 92 | 1010.2 |
| 20260905082223 | 22 | 269 | 0.0 | 0.0 | 0.00 | 0.00 | 0.00 | 92 | 1010.1 |
| 20260905081205 | 22 | 269 | 0.0 | 0.0 | 0.00 | 0.00 | 0.00 | 92 | 1010.2 |
| 20260905080155 | 22 | 269 | 0.0 | 0.0 | 0.00 | 0.00 | 0.00 | 92 | 1010.4 |
| 20260905075147 | 22 | 269 | 0.0 | 0.0 | 0.00 | 0.00 | 0.00 | 92 | 1010.4 |
| 20260905074115 | 22 | 269 | 0.0 | 0.0 | 0.00 | 0.00 | 0.00 | 91 | 1010.6 |
| 20260905073129 | 22 | 269 | 0.0 | 0.0 | 0.00 | 0.00 | 0.00 | 91 | 1010.5 |
| 20260905072129 | 22 | 269 | 0.0 | 0.0 | 0.00 | 0.00 | 0.00 | 91 | 1010.5 |
| 20260905070037 | 22 | 269 | 0.0 | 0.0 | 0.00 | 0.00 | 0.00 | 90 | 1010.6 |
| 20260905065038 | 22 | 269 | 0.0 | 0.0 | 0.00 | 0.00 | 0.00 | 90 | 1010.7 |
| 20260905064052 | 23 | 269 | 0.0 | 0.0 | 0.00 | 0.00 | 0.00 | 89 | 1010.9 |
| 20260905061909 | 23 | 269 | 0.0 | 0.0 | 0.00 | 0.00 | 0.00 | 88 | 1011.3 |
| 20260905060922 | 23 | 269 | 0.0 | 0.0 | 0.00 | 0.00 | 0.00 | 89 | 1011.3 |
| 20260905055946 | 23 | 269 | 0.0 | 0.0 | 0.00 | 0.00 | 0.00 | 88 | 1011.4 |
| 20260905054914 | 23 | 269 | 0.0 | 0.0 | 0.00 | 0.00 | 0.00 | 88 | 1011.4 |
| 20260905052723 | 23 | 269 | 0.0 | 0.0 | 0.00 | 0.03 | 0.00 | 86 | 1011.6 |
| 20260905051720 | 24 | 269 | 0.0 | 0.0 | 0.00 | 0.03 | 0.00 | 86 | 1011.7 |
| 20260905050648 | 24 | 269 | 0.0 | 0.0 | 0.00 | 0.05 | 0.00 | 85 | 1011.8 |
| 20260905045617 | 24 | 269 | 0.0 | 0.0 | 0.00 | 0.05 | 0.00 | 85 | 1011.9 |
| 20260905043417 | 24 | 267 | 0.0 | 6.4 | 0.00 | 0.05 | 0.00 | 85 | 1011.9 |
| 20260905042407 | 24 | 273 | 0.0 | 8.0 | 0.00 | 0.05 | 0.00 | 85 | 1012.0 |
| 20260905040239 | 24 | 256 | 0.0 | 1.6 | 0.00 | 0.23 | 0.00 | 86 | 1012.1 |
| 20260905034157 | 24 | 256 | 0.0 | 0.0 | 0.00 | 2.16 | 0.23 | 87 | 1012.3 |
| 20260905033202 | 24 | 257 | 0.0 | 0.0 | 0.00 | 2.36 | 0.23 | 86 | 1012.3 |
| 20260905032136 | 24 | 257 | 0.0 | 1.6 | 0.00 | 2.36 | 0.23 | 86 | 1012.2 |
| 20260905031104 | 24 | 257 | 0.0 | 4.8 | 0.00 | 2.36 | 0.23 | 86 | 1012.3 |
| 20260905030104 | 24 | 256 | 0.0 | 0.0 | 0.00 | 2.36 | 0.23 | 86 | 1012.2 |
| 20260905025116 | 24 | 256 | 0.0 | 0.0 | 0.00 | 2.36 | 0.23 | 87 | 1012.2 |
| 20260905024129 | 24 | 256 | 0.0 | 0.0 | 0.00 | 2.36 | 0.23 | 86 | 1012.3 |
| 20260905023146 | 24 | 256 | 0.0 | 0.0 | 0.00 | 2.36 | 0.23 | 86 | 1012.3 |
| 20260905021017 | 25 | 256 | 0.0 | 0.0 | 0.00 | 2.36 | 0.23 | 86 | 1011.9 |
| 20260905020032 | 25 | 256 | 0.0 | 0.0 | 0.00 | 2.36 | 0.23 | 85 | 1011.9 |
| 20260905015048 | 25 | 256 | 0.0 | 0.0 | 0.00 | 2.36 | 0.23 | 85 | 1012.0 |
| 20260905014025 | 25 | 256 | 0.0 | 1.6 | 0.00 | 2.36 | 0.23 | 84 | 1011.9 |
| 20260905010800 | 25 | 256 | 0.0 | 0.0 | 0.00 | 2.36 | 0.23 | 83 | 1011.4 |
| 20260905005747 | 25 | 256 | 0.0 | 0.0 | 0.00 | 2.36 | 0.23 | 83 | 1011.1 |
| 20260905004746 | 26 | 256 | 0.0 | 0.0 | 0.00 | 2.36 | 0.23 | 82 | 1011.2 |
| 20260905001456 | 26 | 255 | 0.0 | 0.0 | 0.00 | 2.36 | 0.23 | 81 | 1011.2 |